Time,TemperatureF,DewpointF,PressureIn,WindDirection,WindDirectionDegrees,WindSpeedMPH,WindSpeedGustMPH,Humidity,HourlyPrecipIn,Conditions,Clouds,dailyrainin,SoftwareType,DateUTC
2013-04-12 00:03:00,48.0,40.0,30.43,ESE,113,0.0,0.0,73,0.00,,,0.02,,2013-04-12 04:03:00,
2013-04-12 00:13:00,48.0,40.0,30.43,ESE,113,0.0,0.0,73,0.00,,,0.02,,2013-04-12 04:13:00,
2013-04-12 00:23:00,48.0,40.0,30.42,SSW,203,0.0,0.0,73,0.00,,,0.02,,2013-04-12 04:23:00,
2013-04-12 00:33:00,48.0,40.0,30.42,SSE,158,0.0,0.0,74,0.00,,,0.00,,2013-04-12 04:33:00,
2013-04-12 00:43:00,48.0,40.0,30.42,SSE,158,0.0,0.0,74,0.00,,,0.00,,2013-04-12 04:43:00,
2013-04-12 00:52:00,47.0,39.0,30.42,WSW,248,0.0,0.0,74,0.00,,,0.00,,2013-04-12 04:52:00,
2013-04-12 01:03:00,47.0,39.0,30.42,WSW,248,0.0,0.0,74,0.00,,,0.00,,2013-04-12 05:03:00,
2013-04-12 01:12:00,47.0,39.0,30.42,WSW,248,0.0,0.0,74,0.00,,,0.00,,2013-04-12 05:12:00,
2013-04-12 01:23:00,47.0,39.0,30.41,SE,135,0.0,0.0,75,0.00,,,0.00,,2013-04-12 05:23:00,
2013-04-12 01:32:00,47.0,39.0,30.41,SE,135,0.0,0.0,75,0.00,,,0.00,,2013-04-12 05:32:00,
2013-04-12 01:42:00,47.0,39.0,30.41,SE,135,0.0,0.0,75,0.00,,,0.00,,2013-04-12 05:42:00,
2013-04-12 01:52:00,47.0,39.0,30.41,SE,135,0.0,0.0,75,0.00,,,0.00,,2013-04-12 05:52:00,
2013-04-12 02:02:00,46.0,39.0,30.39,South,180,0.0,0.0,77,0.00,,,0.00,,2013-04-12 06:02:00,
2013-04-12 02:12:00,46.0,39.0,30.39,South,180,0.0,0.0,77,0.00,,,0.00,,2013-04-12 06:12:00,
2013-04-12 02:22:00,46.0,39.0,30.40,WSW,248,0.0,0.0,77,0.00,,,0.00,,2013-04-12 06:22:00,
2013-04-12 02:32:00,46.0,40.0,30.40,ESE,113,0.0,0.0,78,0.00,,,0.00,,2013-04-12 06:32:00,
2013-04-12 02:42:00,46.0,40.0,30.40,ESE,113,0.0,0.0,78,0.00,,,0.00,,2013-04-12 06:42:00,
2013-04-12 02:52:00,46.0,40.0,30.39,SSE,158,0.0,0.0,78,0.00,,,0.00,,2013-04-12 06:52:00,
2013-04-12 03:02:00,46.0,39.0,30.38,NNW,338,4.0,4.0,77,0.00,,,0.00,,2013-04-12 07:02:00,
2013-04-12 03:12:00,46.0,39.0,30.38,NNW,338,4.0,4.0,77,0.00,,,0.00,,2013-04-12 07:12:00,
2013-04-12 03:22:00,46.0,39.0,30.38,NNW,338,4.0,4.0,77,0.00,,,0.00,,2013-04-12 07:22:00,
2013-04-12 03:32:00,47.0,39.0,30.38,SSW,203,0.0,2.0,74,0.00,,,0.00,,2013-04-12 07:32:00,
2013-04-12 03:42:00,47.0,39.0,30.38,SSW,203,0.0,2.0,74,0.00,,,0.00,,2013-04-12 07:42:00,
2013-04-12 03:52:00,46.0,39.0,30.38,SE,135,0.0,3.0,75,0.00,,,0.00,,2013-04-12 07:52:00,
2013-04-12 04:03:00,46.0,39.0,30.38,SE,135,4.0,4.0,76,0.00,,,0.00,,2013-04-12 08:03:00,
2013-04-12 04:12:00,46.0,39.0,30.38,SE,135,4.0,4.0,76,0.00,,,0.00,,2013-04-12 08:12:00,
2013-04-12 04:22:00,46.0,39.0,30.38,SE,135,4.0,4.0,76,0.00,,,0.00,,2013-04-12 08:22:00,
2013-04-12 04:32:00,45.0,39.0,30.38,ESE,113,0.0,3.0,80,0.00,,,0.00,,2013-04-12 08:32:00,
2013-04-12 04:43:00,45.0,39.0,30.38,ESE,113,0.0,3.0,80,0.00,,,0.00,,2013-04-12 08:43:00,
2013-04-12 04:53:00,45.0,39.0,30.38,ESE,113,0.0,3.0,80,0.00,,,0.00,,2013-04-12 08:53:00,
2013-04-12 05:02:00,45.0,41.0,30.37,SE,135,0.0,0.0,85,0.00,,,0.00,,2013-04-12 09:02:00,
2013-04-12 05:12:00,45.0,41.0,30.37,SE,135,0.0,0.0,85,0.00,,,0.00,,2013-04-12 09:12:00,
2013-04-12 05:22:00,45.0,41.0,30.37,SE,135,0.0,0.0,85,0.00,,,0.00,,2013-04-12 09:22:00,
2013-04-12 05:33:00,44.0,40.0,30.37,NW,315,0.0,4.0,87,0.00,,,0.00,,2013-04-12 09:33:00,
2013-04-12 05:43:00,44.0,40.0,30.37,NW,315,0.0,4.0,87,0.00,,,0.00,,2013-04-12 09:43:00,
2013-04-12 05:53:00,44.0,40.0,30.37,NNE,23,0.0,0.0,87,0.00,,,0.00,,2013-04-12 09:53:00,
2013-04-12 06:03:00,44.0,40.0,30.37,NNE,23,0.0,0.0,87,0.00,,,0.00,,2013-04-12 10:03:00,
2013-04-12 06:13:00,44.0,40.0,30.37,NNE,23,0.0,0.0,87,0.00,,,0.00,,2013-04-12 10:13:00,
2013-04-12 06:23:00,43.0,39.0,30.36,NNW,338,0.0,0.0,87,0.00,,,0.00,,2013-04-12 10:23:00,
2013-04-12 06:34:00,43.0,39.0,30.34,SSE,158,0.0,5.0,85,0.00,,,0.00,,2013-04-12 10:34:00,
2013-04-12 06:43:00,43.0,39.0,30.34,SSE,158,0.0,5.0,85,0.00,,,0.00,,2013-04-12 10:43:00,
2013-04-12 06:53:00,43.0,39.0,30.34,SSE,158,0.0,5.0,85,0.00,,,0.00,,2013-04-12 10:53:00,
2013-04-12 07:03:00,43.0,38.0,30.33,North,0,0.0,0.0,83,0.00,,,0.00,,2013-04-12 11:03:00,
2013-04-12 07:13:00,43.0,38.0,30.33,North,0,0.0,0.0,83,0.00,,,0.00,,2013-04-12 11:13:00,
2013-04-12 07:22:00,43.0,38.0,30.33,NNE,23,0.0,0.0,82,0.00,,,0.00,,2013-04-12 11:22:00,
2013-04-12 07:32:00,44.0,39.0,30.33,SSE,158,0.0,0.0,81,0.00,,,0.00,,2013-04-12 11:32:00,
2013-04-12 07:43:00,44.0,39.0,30.33,SSE,158,0.0,0.0,81,0.00,,,0.00,,2013-04-12 11:43:00,
2013-04-12 07:52:00,43.0,38.0,30.31,North,0,6.0,6.0,81,0.00,,,0.00,,2013-04-12 11:52:00,
2013-04-12 08:03:00,43.0,38.0,30.31,SW,225,0.0,7.0,81,0.02,,,0.02,,2013-04-12 12:03:00,
2013-04-12 08:13:00,43.0,38.0,30.31,SW,225,0.0,7.0,81,0.02,,,0.02,,2013-04-12 12:13:00,
2013-04-12 08:22:00,43.0,38.0,30.31,SW,225,0.0,7.0,81,0.02,,,0.02,,2013-04-12 12:22:00,
2013-04-12 08:33:00,42.0,37.0,30.30,SSE,158,0.0,7.0,83,0.02,,,0.02,,2013-04-12 12:33:00,
2013-04-12 08:42:00,42.0,37.0,30.30,SSE,158,0.0,7.0,83,0.02,,,0.02,,2013-04-12 12:42:00,
2013-04-12 08:53:00,42.0,38.0,30.29,NNW,338,8.0,8.0,84,0.02,,,0.04,,2013-04-12 12:53:00,
2013-04-12 09:03:00,42.0,38.0,30.29,NW,315,3.0,8.0,84,0.02,,,0.04,,2013-04-12 13:03:00,
2013-04-12 09:12:00,42.0,38.0,30.29,NW,315,3.0,8.0,84,0.02,,,0.04,,2013-04-12 13:12:00,
2013-04-12 09:22:00,42.0,38.0,30.29,NNE,23,2.0,2.0,85,0.02,,,0.04,,2013-04-12 13:22:00,
2013-04-12 09:32:00,42.0,38.0,30.29,NNE,23,2.0,2.0,85,0.02,,,0.04,,2013-04-12 13:32:00,
2013-04-12 09:42:00,42.0,38.0,30.29,NNE,23,2.0,2.0,85,0.02,,,0.04,,2013-04-12 13:42:00,
2013-04-12 09:52:00,42.0,38.0,30.29,SSE,158,0.0,0.0,87,0.04,,,0.08,,2013-04-12 13:52:00,
2013-04-12 10:03:00,42.0,38.0,30.29,SSE,158,0.0,0.0,87,0.04,,,0.08,,2013-04-12 14:03:00,
2013-04-12 10:13:00,42.0,38.0,30.29,SSE,158,0.0,0.0,87,0.04,,,0.08,,2013-04-12 14:13:00,
2013-04-12 10:23:00,41.0,38.0,30.28,ESE,113,0.0,0.0,89,0.16,,,0.20,,2013-04-12 14:23:00,
2013-04-12 10:33:00,41.0,38.0,30.29,ENE,68,0.0,0.0,89,0.16,,,0.22,,2013-04-12 14:33:00,
2013-04-12 10:42:00,41.0,38.0,30.29,ENE,68,0.0,0.0,89,0.16,,,0.22,,2013-04-12 14:42:00,
2013-04-12 10:53:00,41.0,38.0,30.29,SSE,158,0.0,0.0,90,0.12,,,0.22,,2013-04-12 14:53:00,
2013-04-12 11:03:00,41.0,38.0,30.28,SE,135,0.0,0.0,90,0.10,,,0.28,,2013-04-12 15:03:00,
2013-04-12 11:12:00,41.0,38.0,30.28,SE,135,0.0,0.0,90,0.10,,,0.28,,2013-04-12 15:12:00,
2013-04-12 11:22:00,41.0,38.0,30.28,SE,135,0.0,0.0,90,0.10,,,0.28,,2013-04-12 15:22:00,
2013-04-12 11:33:00,42.0,39.0,30.27,NNW,338,0.0,2.0,90,0.08,,,0.30,,2013-04-12 15:33:00,
2013-04-12 11:43:00,42.0,39.0,30.27,NNW,338,0.0,2.0,90,0.08,,,0.30,,2013-04-12 15:43:00,
2013-04-12 11:53:00,42.0,39.0,30.27,NNW,338,0.0,2.0,90,0.08,,,0.30,,2013-04-12 15:53:00,
2013-04-12 12:04:00,42.0,39.0,30.28,WNW,293,0.0,0.0,90,0.06,,,0.35,,2013-04-12 16:04:00,
2013-04-12 12:13:00,42.0,39.0,30.28,WNW,293,0.0,0.0,90,0.06,,,0.35,,2013-04-12 16:13:00,
2013-04-12 12:23:00,42.0,39.0,30.26,South,180,0.0,0.0,90,0.06,,,0.35,,2013-04-12 16:23:00,
2013-04-12 12:33:00,42.0,39.0,30.24,South,180,0.0,0.0,90,0.04,,,0.37,,2013-04-12 16:33:00,
2013-04-12 12:42:00,42.0,39.0,30.24,South,180,0.0,0.0,90,0.04,,,0.37,,2013-04-12 16:42:00,
2013-04-12 12:53:00,42.0,39.0,30.24,ESE,113,0.0,0.0,90,0.06,,,0.39,,2013-04-12 16:53:00,
2013-04-12 13:04:00,42.0,39.0,30.21,North,0,0.0,2.0,90,0.04,,,0.39,,2013-04-12 17:04:00,
2013-04-12 13:12:00,42.0,39.0,30.21,North,0,0.0,2.0,90,0.04,,,0.39,,2013-04-12 17:12:00,
2013-04-12 13:23:00,42.0,39.0,30.21,North,0,0.0,2.0,90,0.04,,,0.39,,2013-04-12 17:23:00,
2013-04-12 13:34:00,43.0,40.0,30.20,SSE,158,0.0,6.0,89,0.02,,,0.39,,2013-04-12 17:34:00,
2013-04-12 13:45:00,43.0,40.0,30.20,SSE,158,0.0,6.0,89,0.02,,,0.39,,2013-04-12 17:45:00,
2013-04-12 14:07:00,43.0,40.0,30.20,SSE,158,0.0,0.0,89,0.00,,,0.39,,2013-04-12 18:07:00,
2013-04-12 14:27:00,42.0,39.0,30.17,SE,135,0.0,0.0,90,0.06,,,0.44,,2013-04-12 18:27:00,
2013-04-12 15:27:00,42.0,40.0,30.16,SSE,158,0.0,2.0,91,0.04,,,0.44,,2013-04-12 19:27:00,
2013-04-12 15:33:00,43.0,41.0,30.15,South,180,0.0,0.0,91,0.00,,,0.44,,2013-04-12 19:33:00,
2013-04-12 15:43:00,43.0,41.0,30.15,South,180,0.0,0.0,91,0.00,,,0.44,,2013-04-12 19:43:00,
2013-04-12 15:52:00,43.0,41.0,30.15,SE,135,0.0,0.0,91,0.00,,,0.44,,2013-04-12 19:52:00,
2013-04-12 16:02:00,42.0,40.0,30.15,SSW,203,0.0,0.0,91,0.00,,,0.44,,2013-04-12 20:02:00,
2013-04-12 16:12:00,42.0,40.0,30.15,SSW,203,0.0,0.0,91,0.00,,,0.44,,2013-04-12 20:12:00,
2013-04-12 16:22:00,42.0,40.0,30.15,SSW,203,0.0,0.0,91,0.00,,,0.44,,2013-04-12 20:22:00,
2013-04-12 16:32:00,42.0,40.0,30.13,SE,135,0.0,6.0,91,0.00,,,0.44,,2013-04-12 20:32:00,
2013-04-12 16:42:00,42.0,40.0,30.13,SE,135,0.0,6.0,91,0.00,,,0.44,,2013-04-12 20:42:00,
2013-04-12 16:52:00,42.0,40.0,30.13,SE,135,0.0,6.0,91,0.00,,,0.44,,2013-04-12 20:52:00,
2013-04-12 17:03:00,42.0,40.0,30.13,SSE,158,0.0,0.0,91,0.00,,,0.44,,2013-04-12 21:03:00,
2013-04-12 17:12:00,42.0,40.0,30.13,SSE,158,0.0,0.0,91,0.00,,,0.44,,2013-04-12 21:12:00,
2013-04-12 17:22:00,42.0,40.0,30.13,North,0,0.0,0.0,91,0.00,,,0.44,,2013-04-12 21:22:00,
2013-04-12 17:33:00,42.0,40.0,30.13,North,0,0.0,0.0,91,0.00,,,0.44,,2013-04-12 21:33:00,
2013-04-12 17:43:00,42.0,40.0,30.13,North,0,0.0,0.0,91,0.00,,,0.44,,2013-04-12 21:43:00,
2013-04-12 17:52:00,42.0,40.0,30.13,South,180,0.0,0.0,91,0.00,,,0.44,,2013-04-12 21:52:00,
2013-04-12 18:03:00,42.0,40.0,30.13,South,180,0.0,0.0,91,0.00,,,0.44,,2013-04-12 22:03:00,
2013-04-12 18:13:00,42.0,40.0,30.13,South,180,0.0,0.0,91,0.00,,,0.44,,2013-04-12 22:13:00,
2013-04-12 18:22:00,42.0,40.0,30.14,SSE,158,0.0,8.0,91,0.00,,,0.44,,2013-04-12 22:22:00,
2013-04-12 18:33:00,42.0,40.0,30.13,West,270,0.0,0.0,91,0.00,,,0.44,,2013-04-12 22:33:00,
2013-04-12 18:43:00,42.0,40.0,30.13,West,270,0.0,0.0,91,0.00,,,0.44,,2013-04-12 22:43:00,
2013-04-12 18:52:00,42.0,40.0,30.13,SSE,158,0.0,0.0,91,0.00,,,0.44,,2013-04-12 22:52:00,
2013-04-12 19:04:00,42.0,40.0,30.12,SW,225,0.0,0.0,91,0.00,,,0.44,,2013-04-12 23:04:00,
2013-04-12 19:12:00,42.0,40.0,30.12,SW,225,0.0,0.0,91,0.00,,,0.44,,2013-04-12 23:12:00,
2013-04-12 19:22:00,42.0,40.0,30.12,East,90,0.0,0.0,92,0.00,,,0.44,,2013-04-12 23:22:00,
2013-04-12 19:32:00,42.0,40.0,30.12,SSE,158,0.0,0.0,92,0.00,,,0.44,,2013-04-12 23:32:00,
2013-04-12 19:42:00,42.0,40.0,30.12,SSE,158,0.0,0.0,92,0.00,,,0.44,,2013-04-12 23:42:00,
2013-04-12 19:52:00,42.0,40.0,30.11,NE,45,0.0,0.0,92,0.00,,,0.44,,2013-04-12 23:52:00,
2013-04-12 20:02:00,42.0,40.0,30.11,South,180,0.0,0.0,92,0.00,,,0.44,,2013-04-13 00:02:00,
2013-04-12 20:12:00,42.0,40.0,30.11,South,180,0.0,0.0,92,0.00,,,0.44,,2013-04-13 00:12:00,
2013-04-12 20:22:00,42.0,40.0,30.11,South,180,0.0,0.0,92,0.00,,,0.44,,2013-04-13 00:22:00,
2013-04-12 20:32:00,42.0,40.0,30.11,SE,135,0.0,0.0,92,0.00,,,0.44,,2013-04-13 00:32:00,
2013-04-12 20:42:00,42.0,40.0,30.11,SE,135,0.0,0.0,92,0.00,,,0.44,,2013-04-13 00:42:00,
2013-04-12 20:52:00,42.0,40.0,30.11,SE,135,0.0,0.0,92,0.00,,,0.44,,2013-04-13 00:52:00,
2013-04-12 21:02:00,42.0,40.0,30.12,WSW,248,0.0,0.0,92,0.00,,,0.44,,2013-04-13 01:02:00,
2013-04-12 21:13:00,42.0,40.0,30.12,WSW,248,0.0,0.0,92,0.00,,,0.44,,2013-04-13 01:13:00,
2013-04-12 21:22:00,42.0,40.0,30.12,WSW,248,0.0,0.0,92,0.00,,,0.44,,2013-04-13 01:22:00,
2013-04-12 21:33:00,42.0,40.0,30.12,ESE,113,0.0,0.0,92,0.00,,,0.44,,2013-04-13 01:33:00,
2013-04-12 21:43:00,42.0,40.0,30.12,ESE,113,0.0,0.0,92,0.00,,,0.44,,2013-04-13 01:43:00,
2013-04-12 21:52:00,42.0,40.0,30.12,SSE,158,0.0,0.0,92,0.00,,,0.44,,2013-04-13 01:52:00,
2013-04-12 22:02:00,42.0,40.0,30.12,NNE,23,0.0,0.0,92,0.00,,,0.44,,2013-04-13 02:02:00,
2013-04-12 22:12:00,42.0,40.0,30.12,NNE,23,0.0,0.0,92,0.00,,,0.44,,2013-04-13 02:12:00,
2013-04-12 22:23:00,42.0,40.0,30.12,SE,135,1.0,1.0,91,0.00,,,0.44,,2013-04-13 02:23:00,
2013-04-12 22:33:00,42.0,40.0,30.12,SSE,158,0.0,0.0,91,0.00,,,0.44,,2013-04-13 02:33:00,
2013-04-12 22:42:00,42.0,40.0,30.12,SSE,158,0.0,0.0,91,0.00,,,0.44,,2013-04-13 02:42:00,
2013-04-12 22:52:00,42.0,40.0,30.12,SSE,158,0.0,0.0,91,0.00,,,0.44,,2013-04-13 02:52:00,
2013-04-12 23:03:00,42.0,40.0,30.14,SSE,158,0.0,0.0,91,0.00,,,0.44,,2013-04-13 03:03:00,
2013-04-12 23:12:00,42.0,40.0,30.14,SSE,158,0.0,0.0,91,0.00,,,0.44,,2013-04-13 03:12:00,
2013-04-12 23:23:00,42.0,40.0,30.14,SSE,158,0.0,0.0,91,0.00,,,0.44,,2013-04-13 03:23:00,
2013-04-12 23:33:00,43.0,41.0,30.14,WNW,293,0.0,0.0,91,0.00,,,0.44,,2013-04-13 03:33:00,
2013-04-12 23:43:00,43.0,41.0,30.14,WNW,293,0.0,0.0,91,0.00,,,0.44,,2013-04-13 03:43:00,
2013-04-12 23:54:00,43.0,41.0,30.13,WNW,293,0.0,0.0,91,0.00,,,0.44,,2013-04-13 03:54:00,